This demonstration page uses our WeatherBlox Daily Observations layout. Learn more.

38.89511, -77.03637

Hourly Observations for October 3, 2015

Temp ( °F °C ) Dew Point ( °F °C ) Humidity (%) Winds ( mph kmh ) Pressure ( in mb ) Visibility ( mi km ) Precip ( " mm )
3:52 am 03:52 Cloudy with Light Rain 50 10 48 8.9 93 93 NNE 14 22 30.09 1019 6 9.65604 0.06 1.524
5:43 am 05:43 Cloudy with Light Rain 50 10 48 9 94 94 NNE 18 30 30.09 1019 5 8.0467 0.02 0.508
5:52 am 05:52 Cloudy with Light Rain 50 10 48 9 94 94 NNE 17 28 30.09 1019 5 8.0467 0 0
6:52 am 06:52 Cloudy with Light Rain 51 10.6 49 9.4 92 92 NNE 17 28 30.09 1019 10 16.0934 0.03 0.762
7:36 am 07:36 Cloudy with Light Rain 52 11 48 9 88 88 NNE 18 30 30.09 1019 3 4.82802 0 0
7:52 am 07:52 Cloudy with Light Rain 51 10.6 49 9.4 92 92 NNE 16 26 30.1 1019 5 8.0467 0 0.0254
8:22 am 08:22 Cloudy 52 11 50 10 94 94 NNE 16 26 30.12 1020 10 16.0934 0 0
8:52 am 08:52 Cloudy 52 11.1 50 10 93 93 NNE 14 22 30.11 1020 10 16.0934 0 0.0254
9:52 am 09:52 Cloudy 53 11.7 51 10.6 93 93 NE 18 30 30.11 1020 9 14.48406 0 0.0254
10:42 am 10:42 Cloudy with Light Drizzle 54 12 52 11 94 94 NE 22 35 30.12 1020 3 4.82802 0 0
10:52 am 10:52 Cloudy with Light Drizzle 54 12.2 52 11.1 93 93 NNE 16 26 30.11 1020 3 4.82802 0 0.0254
11:52 am 11:52 Cloudy with Light Drizzle 55 12.8 53 11.7 93 93 NNE 15 24 30.12 1020 3 4.82802 0 0.0254
12:00 pm 12:00 Cloudy with Light Drizzle 55 13 54 12 94 94 NNE 17 28 30.12 1020 2.5 4.02335 0 0.0254
12:35 pm 12:35 Cloudy with Light Drizzle 55 13 54 12 94 94 NNE 17 28 30.12 1020 3 4.82802 0 0.0254
12:52 pm 12:52 Cloudy with Light Drizzle 55 12.8 54 12.2 96 96 NNE 17 28 30.12 1020 3 4.82802 0 0.0254
1:52 pm 13:52 Cloudy with Light Drizzle 57 13.9 55 12.8 93 93 NNE 16 26 30.11 1020 4 6.43736 0 0.0254
2:52 pm 14:52 Cloudy with Light Drizzle 57 13.9 55 12.8 93 93 NE 16 26 30.1 1019 5 8.0467 0 0.0254
3:19 pm 15:19 Cloudy with Light Drizzle 57 14 55 13 94 94 NE 16 26 30.09 1019 6 9.65604 0 0.0254
3:36 pm 15:36 Cloudy with Light Drizzle 57 14 55 13 94 94 NE 17 28 30.12 1020 4 6.43736 0 0
3:52 pm 15:52 Cloudy with Light Rain 58 14.4 56 13.3 93 93 NE 17 28 30.11 1020 6 9.65604 0 0.0254
4:26 pm 16:26 Cloudy with Light Drizzle 57 14 55 13 94 94 NE 16 26 30.12 1020 2.5 4.02335 0 0
4:35 pm 16:35 Cloudy with Light Rain 57 14 55 13 94 94 NE 17 28 30.12 1020 1.75 2.816345 0.01 0.254
4:52 pm 16:52 Cloudy with Light Rain 58 14.4 56 13.3 93 93 NE 16 26 30.13 1020 1.5 2.41401 0.01 0.254
4:56 pm 16:56 Cloudy with Light Rain 57 14 55 13 94 94 NE 20 31 30.12 1020 2 3.21868 0 0.0254
5:26 pm 17:26 Cloudy with Light Drizzle 57 14 57 14 100 100 NE 16 26 30.12 1020 3 4.82802 0 0
5:52 pm 17:52 Cloudy with Light Rain 58 14.4 56 13.3 93 93 NE 16 26 30.13 1020 6 9.65604 0 0.0254
6:05 pm 18:05 Cloudy with Light Rain 57 14 55 13 94 94 NE 17 28 30.15 1021 6 9.65604 0 0.0254
6:17 pm 18:17 Cloudy with Light Rain 57 14 55 13 94 94 NE 18 30 30.15 1021 2.5 4.02335 0.01 0.254
6:29 pm 18:29 Cloudy with Light Rain 57 14 55 13 94 94 NE 17 28 30.12 1020 1.75 2.816345 0.01 0.254
6:31 pm 18:31 Cloudy with Light Rain 57 14 55 13 94 94 NE 18 30 30.15 1021 2 3.21868 0.01 0.254
6:37 pm 18:37 Cloudy with Light Rain 57 14 55 13 94 94 NE 17 28 30.15 1021 5 8.0467 0.01 0.254
6:52 pm 18:52 Cloudy with Light Rain 57 13.9 56 13.3 96 96 NE 18 30 30.14 1021 7 11.26538 0.01 0.254
7:18 pm 19:18 Cloudy with Light Drizzle 57 14 55 13 94 94 NE 18 30 30.15 1021 6 9.65604 0 0
7:52 pm 19:52 Cloudy with Light Rain 57 13.9 55 12.8 93 93 NE 21 33 30.16 1021 5 8.0467 0 0.0254
8:01 pm 20:01 Cloudy with Light Rain 57 14 55 13 94 94 NE 21 33 30.15 1021 5 8.0467 0 0.0254
8:52 pm 20:52 Cloudy with Light Rain 56 13.3 55 12.8 97 97 NE 23 37 30.16 1021 7 11.26538 0 0.0254
9:15 pm 21:15 Cloudy 55 13 55 13 100 100 NE 21 33 30.18 1022 10 16.0934 0 0.0254
9:29 pm 21:29 Cloudy 55 13 55 13 100 100 NE 21 33 30.18 1022 8 12.87472 0 0.0254
9:38 pm 21:38 Cloudy with Light Rain 55 13 55 13 100 100 NE 16 26 30.18 1022 9 14.48406 0 0
9:52 pm 21:52 Cloudy with Light Rain 56 13.3 55 12.8 97 97 ENE 17 28 30.18 1022 7 11.26538 0 0.0254
10:52 pm 22:52 Cloudy with Light Drizzle 56 13.3 54 12.2 93 93 NE 16 26 30.19 1022 8 12.87472 0 0.0254
11:45 pm 23:45 Cloudy with Light Drizzle 55 13 54 12 94 94 NE 17 28 30.18 1022 3 4.82802 0 0.0254
11:52 pm 23:52 Cloudy with Light Drizzle 56 13.3 54 12.2 93 93 NE 15 24 30.18 1022 4 6.43736 0.01 0.254

Powered by AerisWeather